| time (UTC) | temp F | wind direction | speed MPH | gust MPH | rain 1hr in | rain 24hr in | rain mn in | humidity % | barometer mb |
| 20260506091553 | 56 | 360 | 11.0 | 18.0 | 0.00 | 0.00 | 0.00 | 81 | 1012.2 |
| 20260506091050 | 56 | 360 | 12.0 | 18.0 | 0.00 | 0.00 | 0.00 | 81 | 1012.1 |
| 20260506090550 | 56 | 360 | 13.0 | 18.0 | 0.00 | 0.00 | 0.00 | 81 | 1011.7 |
| 20260506090106 | 56 | 360 | 11.0 | 17.0 | 0.00 | 0.00 | 0.00 | 81 | 1011.7 |
| 20260506085550 | 57 | 360 | 12.0 | 17.0 | 0.00 | 0.00 | 0.00 | 80 | 1012.1 |
| 20260506085050 | 57 | 360 | 13.0 | 17.0 | 0.00 | 0.00 | 0.00 | 80 | 1012.1 |
| 20260506084555 | 57 | 360 | 11.0 | 14.0 | 0.00 | 0.00 | 0.00 | 79 | 1011.9 |
| 20260506084050 | 57 | 360 | 10.0 | 15.0 | 0.00 | 0.00 | 0.00 | 79 | 1012.1 |
| 20260506083550 | 57 | 360 | 10.0 | 16.0 | 0.00 | 0.00 | 0.00 | 79 | 1012.1 |
| 20260506083053 | 58 | 360 | 10.0 | 17.0 | 0.00 | 0.00 | 0.00 | 79 | 1012.3 |
| 20260506082554 | 58 | 360 | 12.0 | 17.0 | 0.00 | 0.00 | 0.00 | 78 | 1012.2 |
| 20260506082050 | 58 | 360 | 11.0 | 17.0 | 0.00 | 0.00 | 0.00 | 78 | 1012.0 |
| 20260506081552 | 58 | 360 | 11.0 | 17.0 | 0.00 | 0.00 | 0.00 | 77 | 1011.9 |
| 20260506081051 | 59 | 360 | 9.0 | 16.0 | 0.00 | 0.00 | 0.00 | 77 | 1012.0 |
| 20260506080551 | 59 | 360 | 10.0 | 17.0 | 0.00 | 0.00 | 0.00 | 76 | 1012.0 |
| 20260506073111 | 61 | 360 | 9.0 | 15.0 | 0.00 | 0.00 | 0.00 | 74 | 1012.2 |
| 20260506072554 | 61 | 360 | 10.0 | 15.0 | 0.00 | 0.00 | 0.00 | 74 | 1012.3 |
| 20260506072054 | 61 | 360 | 10.0 | 15.0 | 0.00 | 0.00 | 0.00 | 74 | 1012.2 |
| 20260506071600 | 62 | 360 | 9.0 | 13.0 | 0.00 | 0.00 | 0.00 | 74 | 1012.4 |
| 20260506071051 | 62 | 360 | 9.0 | 13.0 | 0.00 | 0.00 | 0.00 | 74 | 1012.5 |
| 20260506070551 | 62 | 360 | 9.0 | 13.0 | 0.00 | 0.00 | 0.00 | 74 | 1012.4 |
| 20260506070111 | 62 | 360 | 8.0 | 12.0 | 0.00 | 0.00 | 0.00 | 74 | 1012.3 |
| 20260506062051 | 65 | 360 | 4.0 | 6.0 | 0.00 | 0.00 | 0.00 | 70 | 1011.6 |
| 20260506061603 | 65 | 360 | 4.0 | 6.0 | 0.00 | 0.00 | 0.00 | 69 | 1011.5 |
| 20260506061051 | 65 | 360 | 4.0 | 6.0 | 0.00 | 0.00 | 0.00 | 69 | 1011.5 |
| 20260506060550 | 66 | 360 | 4.0 | 6.0 | 0.00 | 0.00 | 0.00 | 68 | 1011.5 |
| 20260506051051 | 68 | 76 | 8.0 | 12.0 | 0.00 | 0.00 | 0.00 | 64 | 1011.1 |
| 20260506050551 | 68 | 65 | 8.0 | 11.0 | 0.00 | 0.00 | 0.00 | 64 | 1011.2 |
| 20260506045051 | 69 | 73 | 9.0 | 17.0 | 0.00 | 0.00 | 0.00 | 63 | 1011.0 |
| 20260506044611 | 70 | 73 | 11.0 | 17.0 | 0.00 | 0.00 | 0.00 | 62 | 1010.8 |
| 20260506044051 | 70 | 70 | 11.0 | 14.0 | 0.00 | 0.00 | 0.00 | 62 | 1010.7 |
| 20260506043553 | 70 | 15 | 9.0 | 13.0 | 0.00 | 0.00 | 0.00 | 62 | 1010.7 |
| 20260506043054 | 70 | 72 | 9.0 | 11.0 | 0.00 | 0.00 | 0.00 | 62 | 1010.5 |
| 20260506042551 | 71 | 58 | 7.0 | 12.0 | 0.00 | 0.00 | 0.00 | 62 | 1010.7 |
| 20260506042051 | 71 | 50 | 8.0 | 12.0 | 0.00 | 0.00 | 0.00 | 62 | 1010.6 |
| 20260506041606 | 71 | 360 | 8.0 | 11.0 | 0.00 | 0.00 | 0.00 | 62 | 1010.5 |
| 20260506041052 | 71 | 360 | 8.0 | 11.0 | 0.00 | 0.00 | 0.00 | 62 | 1010.7 |
| 20260506040550 | 72 | 360 | 5.0 | 9.0 | 0.00 | 0.00 | 0.00 | 61 | 1010.6 |
| 20260506035550 | 72 | 360 | 6.0 | 14.0 | 0.00 | 0.00 | 0.00 | 61 | 1010.5 |
| 20260506035052 | 73 | 360 | 8.0 | 15.0 | 0.00 | 0.00 | 0.00 | 60 | 1010.4 |
| 20260506034601 | 73 | 360 | 10.0 | 17.0 | 0.00 | 0.00 | 0.00 | 59 | 1010.5 |
| 20260506034051 | 74 | 360 | 11.0 | 17.0 | 0.00 | 0.00 | 0.00 | 58 | 1010.5 |
| 20260506033551 | 74 | 360 | 12.0 | 16.0 | 0.00 | 0.00 | 0.00 | 57 | 1010.5 |
| 20260506033057 | 75 | 360 | 11.0 | 14.0 | 0.00 | 0.00 | 0.00 | 56 | 1010.5 |
| 20260506032551 | 75 | 360 | 11.0 | 14.0 | 0.00 | 0.00 | 0.00 | 53 | 1010.4 |
| 20260506032051 | 76 | 40 | 9.0 | 12.0 | 0.00 | 0.00 | 0.00 | 50 | 1010.3 |
| 20260506031600 | 76 | 54 | 8.0 | 12.0 | 0.00 | 0.00 | 0.00 | 48 | 1010.1 |
| 20260506031051 | 77 | 58 | 7.0 | 10.0 | 0.00 | 0.00 | 0.00 | 44 | 1010.0 |
| 20260506030550 | 78 | 38 | 6.0 | 8.0 | 0.00 | 0.00 | 0.00 | 41 | 1010.1 |
| 20260506030056 | 78 | 22 | 3.0 | 5.0 | 0.00 | 0.00 | 0.00 | 39 | 1010.1 |
| 20260506025550 | 78 | 15 | 2.0 | 6.0 | 0.00 | 0.00 | 0.00 | 39 | 1010.0 |
| 20260506025050 | 78 | 351 | 3.0 | 9.0 | 0.00 | 0.00 | 0.00 | 39 | 1009.8 |
| 20260506024608 | 79 | 342 | 5.0 | 9.0 | 0.00 | 0.00 | 0.00 | 40 | 1009.7 |
| 20260506024050 | 79 | 319 | 6.0 | 9.0 | 0.00 | 0.00 | 0.00 | 39 | 1009.8 |
| 20260506023551 | 80 | 58 | 4.0 | 6.0 | 0.00 | 0.00 | 0.00 | 40 | 1009.7 |
| 20260506023056 | 80 | 5 | 3.0 | 6.0 | 0.00 | 0.00 | 0.00 | 37 | 1009.5 |
| 20260506022551 | 81 | 336 | 4.0 | 6.0 | 0.00 | 0.00 | 0.00 | 36 | 1009.4 |
| 20260506022051 | 81 | 320 | 5.0 | 6.0 | 0.00 | 0.00 | 0.00 | 35 | 1009.3 |
| 20260506021552 | 81 | 325 | 4.0 | 6.0 | 0.00 | 0.00 | 0.00 | 36 | 1009.3 |
| 20260506021055 | 81 | 328 | 5.0 | 6.0 | 0.00 | 0.00 | 0.00 | 37 | 1009.3 |
| 20260506020550 | 81 | 324 | 5.0 | 6.0 | 0.00 | 0.00 | 0.00 | 37 | 1009.3 |
| 20260506020118 | 81 | 319 | 4.0 | 8.0 | 0.00 | 0.00 | 0.00 | 37 | 1009.3 |
| 20260506015553 | 81 | 323 | 4.0 | 8.0 | 0.00 | 0.00 | 0.00 | 36 | 1009.3 |
| 20260506015051 | 82 | 325 | 5.0 | 9.0 | 0.00 | 0.00 | 0.00 | 35 | 1009.2 |
| 20260506014553 | 82 | 325 | 7.0 | 10.0 | 0.00 | 0.00 | 0.00 | 34 | 1009.2 |
| 20260506014050 | 83 | 330 | 8.0 | 11.0 | 0.00 | 0.00 | 0.00 | 34 | 1009.0 |
| 20260506013550 | 83 | 321 | 9.0 | 11.0 | 0.00 | 0.00 | 0.00 | 33 | 1009.0 |
| 20260506013049 | 83 | 329 | 9.0 | 11.0 | 0.00 | 0.00 | 0.00 | 32 | 1008.8 |
| 20260506012550 | 84 | 321 | 9.0 | 11.0 | 0.00 | 0.00 | 0.00 | 33 | 1008.8 |
| 20260506012051 | 84 | 323 | 8.0 | 11.0 | 0.00 | 0.00 | 0.00 | 33 | 1008.7 |
| 20260506011551 | 84 | 330 | 9.0 | 11.0 | 0.00 | 0.00 | 0.00 | 33 | 1008.6 |
| 20260506011053 | 84 | 320 | 8.0 | 10.0 | 0.00 | 0.00 | 0.00 | 34 | 1008.7 |
| 20260506010551 | 85 | 319 | 7.0 | 9.0 | 0.00 | 0.00 | 0.00 | 33 | 1008.5 |
| 20260506010057 | 86 | 317 | 7.0 | 9.0 | 0.00 | 0.00 | 0.00 | 32 | 1008.3 |
| 20260506005551 | 86 | 302 | 6.0 | 8.0 | 0.00 | 0.00 | 0.00 | 31 | 1008.0 |
| 20260506005050 | 87 | 313 | 5.0 | 7.0 | 0.00 | 0.00 | 0.00 | 31 | 1007.9 |
| 20260506004557 | 87 | 300 | 4.0 | 9.0 | 0.00 | 0.00 | 0.00 | 29 | 1007.8 |
| 20260506004051 | 87 | 275 | 6.0 | 10.0 | 0.00 | 0.00 | 0.00 | 29 | 1007.7 |
| 20260506003551 | 88 | 296 | 7.0 | 13.0 | 0.00 | 0.00 | 0.00 | 28 | 1007.8 |
| 20260506003057 | 88 | 295 | 9.0 | 13.0 | 0.00 | 0.00 | 0.00 | 28 | 1007.7 |
| 20260506002550 | 88 | 311 | 7.0 | 11.0 | 0.00 | 0.00 | 0.00 | 28 | 1007.7 |
| 20260506002051 | 88 | 309 | 7.0 | 10.0 | 0.00 | 0.00 | 0.00 | 30 | 1007.7 |
| 20260506001607 | 89 | 301 | 6.0 | 9.0 | 0.00 | 0.00 | 0.00 | 29 | 1007.6 |
| 20260506001051 | 89 | 302 | 3.0 | 7.0 | 0.00 | 0.00 | 0.00 | 28 | 1007.5 |
| 20260506000555 | 90 | 290 | 2.0 | 4.0 | 0.00 | 0.00 | 0.00 | 27 | 1007.3 |
| 20260506000125 | 90 | 279 | 1.0 | 4.0 | 0.00 | 0.00 | 0.00 | 26 | 1007.4 |
| 20260505235551 | 90 | 278 | 1.0 | 6.0 | 0.00 | 0.00 | 0.00 | 25 | 1007.3 |
| 20260505235051 | 91 | 320 | 2.0 | 11.0 | 0.00 | 0.00 | 0.00 | 24 | 1007.3 |
| 20260505234615 | 91 | 270 | 2.0 | 11.0 | 0.00 | 0.00 | 0.00 | 24 | 1007.3 |
| 20260505234055 | 91 | 284 | 5.0 | 11.0 | 0.00 | 0.00 | 0.00 | 23 | 1007.3 |
| 20260505233553 | 91 | 255 | 4.0 | 14.0 | 0.00 | 0.00 | 0.00 | 23 | 1007.3 |
| 20260505233057 | 91 | 296 | 6.0 | 14.0 | 0.00 | 0.00 | 0.00 | 22 | 1007.3 |
| 20260505232550 | 92 | 274 | 10.0 | 14.0 | 0.00 | 0.00 | 0.00 | 23 | 1007.3 |
| 20260505232051 | 92 | 296 | 8.0 | 14.0 | 0.00 | 0.00 | 0.00 | 22 | 1007.3 |
| 20260505231600 | 93 | 286 | 4.0 | 13.0 | 0.00 | 0.00 | 0.00 | 22 | 1007.3 |
| 20260505231050 | 93 | 290 | 4.0 | 15.0 | 0.00 | 0.00 | 0.00 | 22 | 1007.1 |
| 20260505230550 | 93 | 284 | 4.0 | 15.0 | 0.00 | 0.00 | 0.00 | 22 | 1007.2 |
| 20260505230054 | 92 | 264 | 4.0 | 16.0 | 0.00 | 0.00 | 0.00 | 23 | 1007.3 |
| 20260505225551 | 92 | 304 | 11.0 | 16.0 | 0.00 | 0.00 | 0.00 | 22 | 1007.3 |
| 20260505225050 | 92 | 274 | 8.0 | 21.0 | 0.00 | 0.00 | 0.00 | 23 | 1007.3 |
| 20260505224557 | 92 | 294 | 15.0 | 21.0 | 0.00 | 0.00 | 0.00 | 23 | 1007.4 |
| 20260505224054 | 92 | 306 | 8.0 | 18.0 | 0.00 | 0.00 | 0.00 | 23 | 1007.4 |
| 20260505223551 | 92 | 295 | 7.0 | 17.0 | 0.00 | 0.00 | 0.00 | 23 | 1007.4 |
| 20260505223101 | 92 | 286 | 7.0 | 15.0 | 0.00 | 0.00 | 0.00 | 22 | 1007.4 |
| 20260505222551 | 93 | 286 | 6.0 | 16.0 | 0.00 | 0.00 | 0.00 | 22 | 1007.4 |
| 20260505222052 | 92 | 290 | 7.0 | 16.0 | 0.00 | 0.00 | 0.00 | 23 | 1007.4 |
| 20260505221600 | 92 | 295 | 6.0 | 15.0 | 0.00 | 0.00 | 0.00 | 22 | 1007.4 |
| 20260505221051 | 92 | 291 | 7.0 | 15.0 | 0.00 | 0.00 | 0.00 | 22 | 1007.4 |
| 20260505220550 | 93 | 294 | 8.0 | 15.0 | 0.00 | 0.00 | 0.00 | 22 | 1007.2 |
| 20260505220106 | 92 | 295 | 6.0 | 21.0 | 0.00 | 0.00 | 0.00 | 22 | 1007.3 |
| 20260505215552 | 92 | 315 | 7.0 | 21.0 | 0.00 | 0.00 | 0.00 | 23 | 1007.4 |
| 20260505215052 | 92 | 297 | 11.0 | 21.0 | 0.00 | 0.00 | 0.00 | 22 | 1007.4 |
| 20260505214601 | 92 | 304 | 13.0 | 22.0 | 0.00 | 0.00 | 0.00 | 22 | 1007.5 |
| 20260505214051 | 92 | 304 | 14.0 | 22.0 | 0.00 | 0.00 | 0.00 | 22 | 1007.5 |
| 20260505213550 | 92 | 295 | 12.0 | 20.0 | 0.00 | 0.00 | 0.00 | 23 | 1007.6 |
| 20260505213053 | 92 | 307 | 7.0 | 20.0 | 0.00 | 0.00 | 0.00 | 23 | 1007.6 |
| 20260505212552 | 92 | 258 | 11.0 | 20.0 | 0.00 | 0.00 | 0.00 | 24 | 1007.7 |
| 20260505212051 | 92 | 301 | 9.0 | 21.0 | 0.00 | 0.00 | 0.00 | 24 | 1007.7 |
| 20260505211629 | 91 | 304 | 13.0 | 21.0 | 0.00 | 0.00 | 0.00 | 24 | 1007.8 |
| 20260505211054 | 91 | 279 | 15.0 | 21.0 | 0.00 | 0.00 | 0.00 | 24 | 1008.0 |
| 20260505210550 | 91 | 285 | 12.0 | 22.0 | 0.00 | 0.00 | 0.00 | 26 | 1008.0 |
| 20260505210056 | 91 | 308 | 10.0 | 22.0 | 0.00 | 0.00 | 0.00 | 25 | 1008.0 |
| 20260505205552 | 91 | 321 | 15.0 | 22.0 | 0.00 | 0.00 | 0.00 | 24 | 1008.1 |
| 20260505205050 | 91 | 306 | 17.0 | 22.0 | 0.00 | 0.00 | 0.00 | 24 | 1007.9 |
| 20260505204613 | 91 | 312 | 12.0 | 21.0 | 0.00 | 0.00 | 0.00 | 24 | 1008.1 |
| 20260505204050 | 91 | 238 | 8.0 | 19.0 | 0.00 | 0.00 | 0.00 | 28 | 1008.0 |
| 20260505203550 | 90 | 315 | 5.0 | 18.0 | 0.00 | 0.00 | 0.00 | 28 | 1008.1 |
| 20260505203055 | 90 | 313 | 13.0 | 18.0 | 0.00 | 0.00 | 0.00 | 28 | 1008.0 |
| 20260505202551 | 90 | 307 | 12.0 | 18.0 | 0.00 | 0.00 | 0.00 | 26 | 1008.1 |
| 20260505202051 | 90 | 220 | 7.0 | 19.0 | 0.00 | 0.00 | 0.00 | 28 | 1008.1 |
| 20260505201554 | 90 | 305 | 12.0 | 19.0 | 0.00 | 0.00 | 0.00 | 30 | 1008.3 |
| 20260505201051 | 90 | 286 | 11.0 | 18.0 | 0.00 | 0.00 | 0.00 | 30 | 1008.3 |
| 20260505200551 | 90 | 309 | 7.0 | 11.0 | 0.00 | 0.00 | 0.00 | 29 | 1008.4 |
| 20260505200053 | 90 | 281 | 5.0 | 13.0 | 0.00 | 0.00 | 0.00 | 30 | 1008.3 |
| 20260505195548 | 90 | 280 | 4.0 | 13.0 | 0.00 | 0.00 | 0.00 | 29 | 1008.4 |
| 20260505195045 | 89 | 285 | 8.0 | 18.0 | 0.00 | 0.00 | 0.00 | 32 | 1008.3 |
| 20260505194552 | 89 | 319 | 10.0 | 18.0 | 0.00 | 0.00 | 0.00 | 31 | 1008.4 |
| 20260505194047 | 89 | 285 | 10.0 | 18.0 | 0.00 | 0.00 | 0.00 | 30 | 1008.4 |
| 20260505193550 | 89 | 301 | 10.0 | 17.0 | 0.00 | 0.00 | 0.00 | 32 | 1008.5 |
| 20260505193052 | 90 | 271 | 3.0 | 12.0 | 0.00 | 0.00 | 0.00 | 34 | 1008.6 |
| 20260505192548 | 89 | 315 | 6.0 | 12.0 | 0.00 | 0.00 | 0.00 | 34 | 1008.7 |
| 20260505192048 | 89 | 287 | 4.0 | 17.0 | 0.00 | 0.00 | 0.00 | 37 | 1008.8 |
| 20260505191552 | 88 | 196 | 5.0 | 17.0 | 0.00 | 0.00 | 0.00 | 40 | 1008.9 |
| 20260505191048 | 88 | 300 | 7.0 | 15.0 | 0.00 | 0.00 | 0.00 | 41 | 1008.9 |
| 20260505190547 | 88 | 277 | 5.0 | 15.0 | 0.00 | 0.00 | 0.00 | 42 | 1009.1 |
| 20260505190103 | 87 | 263 | 7.0 | 15.0 | 0.00 | 0.00 | 0.00 | 44 | 1009.1 |
| 20260505185547 | 87 | 315 | 7.0 | 13.0 | 0.00 | 0.00 | 0.00 | 44 | 1009.0 |
| 20260505185049 | 87 | 269 | 3.0 | 13.0 | 0.00 | 0.00 | 0.00 | 44 | 1008.9 |
| 20260505184553 | 87 | 261 | 5.0 | 13.0 | 0.00 | 0.00 | 0.00 | 43 | 1009.2 |
| 20260505184050 | 87 | 279 | 5.0 | 18.0 | 0.00 | 0.00 | 0.00 | 44 | 1009.1 |
| 20260505183549 | 86 | 316 | 8.0 | 18.0 | 0.00 | 0.00 | 0.00 | 46 | 1009.2 |
| 20260505183055 | 86 | 296 | 9.0 | 17.0 | 0.00 | 0.00 | 0.00 | 44 | 1009.4 |
| 20260505182549 | 86 | 300 | 7.0 | 17.0 | 0.00 | 0.00 | 0.00 | 47 | 1009.4 |
| 20260505182049 | 85 | 297 | 13.0 | 17.0 | 0.00 | 0.00 | 0.00 | 47 | 1009.4 |
| 20260505181636 | 85 | 304 | 10.0 | 18.0 | 0.00 | 0.00 | 0.00 | 49 | 1009.5 |
| 20260505181051 | 85 | 269 | 5.0 | 18.0 | 0.00 | 0.00 | 0.00 | 48 | 1009.6 |
| 20260505180550 | 85 | 313 | 8.0 | 18.0 | 0.00 | 0.00 | 0.00 | 48 | 1009.6 |
| 20260505175549 | 85 | 152 | 6.0 | 14.0 | 0.00 | 0.00 | 0.00 | 53 | 1009.5 |
| 20260505175047 | 84 | 232 | 6.0 | 14.0 | 0.00 | 0.00 | 0.00 | 53 | 1009.7 |
| 20260505174552 | 84 | 312 | 4.0 | 12.0 | 0.00 | 0.00 | 0.00 | 55 | 1009.9 |
| 20260505174047 | 83 | 268 | 5.0 | 12.0 | 0.00 | 0.00 | 0.00 | 55 | 1009.9 |
| 20260505173548 | 83 | 286 | 5.0 | 11.0 | 0.00 | 0.00 | 0.00 | 56 | 1010.0 |
| 20260505173058 | 83 | 261 | 5.0 | 14.0 | 0.00 | 0.00 | 0.00 | 54 | 1010.0 |
| 20260505172547 | 83 | 279 | 6.0 | 14.0 | 0.00 | 0.00 | 0.00 | 56 | 1010.0 |
| 20260505172049 | 82 | 225 | 5.0 | 17.0 | 0.00 | 0.00 | 0.00 | 58 | 1010.0 |
| 20260505171601 | 82 | 225 | 7.0 | 17.0 | 0.00 | 0.00 | 0.00 | 58 | 1009.9 |
| 20260505171050 | 81 | 254 | 7.0 | 17.0 | 0.00 | 0.00 | 0.00 | 60 | 1010.0 |
| 20260505170549 | 81 | 240 | 5.0 | 18.0 | 0.00 | 0.00 | 0.00 | 60 | 1009.9 |
| 20260505170100 | 81 | 242 | 12.0 | 18.0 | 0.00 | 0.00 | 0.00 | 62 | 1010.0 |
| 20260505165549 | 81 | 223 | 10.0 | 15.0 | 0.00 | 0.00 | 0.00 | 63 | 1010.0 |
| 20260505165046 | 81 | 236 | 5.0 | 15.0 | 0.00 | 0.00 | 0.00 | 62 | 1010.0 |
| 20260505164557 | 80 | 209 | 9.0 | 14.0 | 0.00 | 0.00 | 0.00 | 64 | 1010.0 |
| 20260505164046 | 80 | 248 | 6.0 | 15.0 | 0.00 | 0.00 | 0.00 | 65 | 1010.0 |
| 20260505163546 | 79 | 284 | 10.0 | 17.0 | 0.00 | 0.00 | 0.00 | 67 | 1010.0 |
| 20260505163053 | 79 | 225 | 8.0 | 18.0 | 0.00 | 0.00 | 0.00 | 65 | 1009.9 |
| 20260505162548 | 79 | 220 | 8.0 | 18.0 | 0.00 | 0.00 | 0.00 | 66 | 1009.8 |
| 20260505162048 | 79 | 237 | 9.0 | 18.0 | 0.00 | 0.00 | 0.00 | 68 | 1009.8 |
| 20260505161553 | 78 | 241 | 10.0 | 21.0 | 0.00 | 0.00 | 0.00 | 67 | 1009.7 |
| 20260505161049 | 78 | 224 | 10.0 | 22.0 | 0.00 | 0.00 | 0.00 | 68 | 1009.8 |
| 20260505160549 | 78 | 243 | 14.0 | 22.0 | 0.00 | 0.00 | 0.00 | 70 | 1009.8 |
| 20260505153057 | 76 | 227 | 15.0 | 21.0 | 0.00 | 0.00 | 0.00 | 75 | 1009.4 |
| 20260505152549 | 75 | 240 | 15.0 | 21.0 | 0.00 | 0.00 | 0.00 | 75 | 1009.4 |
| 20260505152049 | 75 | 216 | 15.0 | 23.0 | 0.00 | 0.00 | 0.00 | 76 | 1009.4 |
| 20260505151559 | 75 | 360 | 18.0 | 23.0 | 0.00 | 0.00 | 0.00 | 76 | 1009.5 |
| 20260505151054 | 75 | 360 | 15.0 | 21.0 | 0.00 | 0.00 | 0.00 | 77 | 1009.4 |
| 20260505150549 | 74 | 360 | 14.0 | 21.0 | 0.00 | 0.00 | 0.00 | 78 | 1009.4 |
| 20260505140548 | 71 | 267 | 10.0 | 19.0 | 0.00 | 0.00 | 0.00 | 83 | 1009.5 |
| 20260505124557 | 67 | 360 | 12.0 | 18.0 | 0.00 | 0.00 | 0.00 | 87 | 1008.8 |
| 20260505124049 | 67 | 360 | 12.0 | 18.0 | 0.00 | 0.00 | 0.00 | 87 | 1008.7 |
| 20260505123549 | 67 | 360 | 13.0 | 18.0 | 0.00 | 0.00 | 0.00 | 87 | 1008.7 |
| 20260505123057 | 67 | 360 | 12.0 | 17.0 | 0.00 | 0.00 | 0.00 | 87 | 1008.7 |
| 20260505122547 | 67 | 360 | 11.0 | 16.0 | 0.00 | 0.00 | 0.00 | 87 | 1008.6 |
| 20260505122048 | 66 | 360 | 11.0 | 16.0 | 0.00 | 0.00 | 0.00 | 88 | 1008.5 |
| 20260505121553 | 66 | 360 | 11.0 | 16.0 | 0.00 | 0.00 | 0.00 | 88 | 1008.5 |
| 20260505121047 | 66 | 360 | 12.0 | 16.0 | 0.00 | 0.00 | 0.00 | 88 | 1008.4 |
| 20260505120550 | 66 | 360 | 12.0 | 15.0 | 0.00 | 0.00 | 0.00 | 88 | 1008.4 |
| 20260505120110 | 66 | 360 | 11.0 | 16.0 | 0.00 | 0.00 | 0.00 | 87 | 1008.3 |
| 20260505115545 | 66 | 360 | 11.0 | 16.0 | 0.00 | 0.00 | 0.00 | 87 | 1008.2 |
| 20260505115045 | 66 | 360 | 11.0 | 14.0 | 0.00 | 0.00 | 0.00 | 87 | 1008.3 |
| 20260505114556 | 66 | 360 | 10.0 | 15.0 | 0.00 | 0.00 | 0.00 | 87 | 1008.2 |
| 20260505114049 | 66 | 360 | 11.0 | 15.0 | 0.00 | 0.00 | 0.00 | 87 | 1008.1 |
| 20260505113550 | 66 | 360 | 11.0 | 15.0 | 0.00 | 0.00 | 0.00 | 87 | 1008.0 |
| 20260505113053 | 66 | 360 | 11.0 | 15.0 | 0.00 | 0.00 | 0.00 | 87 | 1008.1 |
| 20260505112549 | 67 | 360 | 11.0 | 16.0 | 0.00 | 0.00 | 0.00 | 86 | 1008.1 |
| 20260505112047 | 67 | 360 | 12.0 | 17.0 | 0.00 | 0.00 | 0.00 | 86 | 1008.0 |
| 20260505111550 | 67 | 360 | 12.0 | 17.0 | 0.00 | 0.00 | 0.00 | 86 | 1008.0 |
| 20260505111047 | 67 | 360 | 11.0 | 15.0 | 0.00 | 0.00 | 0.00 | 86 | 1008.0 |
| 20260505110550 | 67 | 360 | 11.0 | 15.0 | 0.00 | 0.00 | 0.00 | 86 | 1008.0 |
| 20260505110111 | 67 | 360 | 11.0 | 15.0 | 0.00 | 0.00 | 0.00 | 86 | 1007.9 |
| 20260505102053 | 67 | 229 | 10.0 | 15.0 | 0.00 | 0.00 | 0.00 | 84 | 1007.8 |
| 20260505101556 | 67 | 234 | 10.0 | 16.0 | 0.00 | 0.00 | 0.00 | 84 | 1007.8 |
| 20260505101049 | 67 | 360 | 11.0 | 17.0 | 0.00 | 0.00 | 0.00 | 84 | 1007.7 |
| 20260505100547 | 67 | 237 | 12.0 | 17.0 | 0.00 | 0.00 | 0.00 | 84 | 1007.7 |
| 20260505100051 | 67 | 232 | 12.0 | 16.0 | 0.00 | 0.00 | 0.00 | 84 | 1007.7 |
| 20260505095546 | 67 | 250 | 10.0 | 14.0 | 0.00 | 0.00 | 0.00 | 84 | 1007.7 |
| 20260505095049 | 67 | 255 | 10.0 | 15.0 | 0.00 | 0.00 | 0.00 | 84 | 1007.8 |
| 20260505094554 | 68 | 224 | 11.0 | 15.0 | 0.00 | 0.00 | 0.00 | 83 | 1007.8 |
| 20260505094048 | 68 | 243 | 11.0 | 15.0 | 0.00 | 0.00 | 0.00 | 83 | 1007.8 |
| 20260505093549 | 68 | 242 | 11.0 | 15.0 | 0.00 | 0.00 | 0.00 | 83 | 1007.7 |
| 20260505093052 | 68 | 247 | 12.0 | 15.0 | 0.00 | 0.00 | 0.00 | 83 | 1007.7 |
| 20260505092549 | 68 | 246 | 11.0 | 14.0 | 0.00 | 0.00 | 0.00 | 83 | 1007.7 |
| 20260505092046 | 68 | 225 | 10.0 | 14.0 | 0.00 | 0.00 | 0.00 | 83 | 1007.8 |